Location: Sternwarte auf dem Internationalen Platz Vogelsang IP
(50.5721°N, 6.4398°E)
Time: 04:39:34
(UTC+01:00)

Transit 2A Rocket - Pass Details

Date: 16 December 2025
Orbit: 581 x 903 km, 66.7° (Epoch: 13 January)

Event Time Altitude Azimuth Distance (km) Brightness Sun altitude
Rises 07:36:42 0° 184° (S) 3,294 8.6 -7.9°
Reaches altitude 10° 07:39:15 10° 175° (S) 2,415 8.1 -7.6°
Maximum altitude 07:44:15 34° 112° (ESE) 1,383 7.2 -6.9°
Drops below altitude 10° 07:49:33 10° 50° (NE) 2,564 8.0 -6.2°
Sets 07:52:18 0° 42° (NE) 3,526 8.6 -5.8°
